Location: Bogis-Bossey
(46.3500°N, 6.1667°E)
Time: 18:42:03
(UTC+00:00)

SL-23 DEB - Pass Details

Date: 17 August 2022
Orbit: 426 x 3604 km, 51.5° (Epoch: 30 September)

Event Time Altitude Azimuth Distance (km) Brightness Sun altitude
Rises 18:58:42 0° 295° (WNW) 4,273 11.8 -3.6°
Reaches altitude 10° 19:02:17 10° 296° (WNW) 2,826 9.5 -4.1°
Maximum altitude 19:08:25 89° 27° (NNE) 665 4.3 -5.1°
Drops below altitude 10° 19:12:06 10° 117° (ESE) 1,729 5.7 -5.7°
Enters shadow 19:12:32 - 117° (ESE) 1,913 5.9 -5.7°
